FW8450 Weather Reports


time (UTC)temp
F
wind
direction
speed
knots
gust
knots
rain 1hr
in
rain 24hr
in
rain mn
in
humidity
%
barometer
mb
20260503211557 75 285 0.9 5.2 0.00 0.00 0.00 61 1011.4
20260503210056 74 217 1.7 6.1 0.00 0.00 0.00 62 1011.6
20260503204556 73 0 1.7 7.0 0.00 0.00 0.00 60 1011.8
20260503203114 74 194 0.9 9.6 0.00 0.00 0.00 59 1011.8
20260503201611 74 293 1.7 5.2 0.00 0.00 0.00 60 1011.9
20260503200054 75 274 0.9 4.3 0.00 0.00 0.00 60 1012.1
20260503194553 74 0 0.9 5.2 0.00 0.00 0.00 60 1012.4
20260503193056 73 265 0.9 6.1 0.00 0.00 0.00 64 1012.5
20260503191556 73 291 1.7 4.3 0.00 0.00 0.00 63 1012.7
20260503190111 72 269 0.9 6.1 0.00 0.00 0.00 62 1012.7
20260503184604 72 261 0.9 1.7 0.00 0.00 0.00 64 1012.9
20260503183101 70 204 0.9 5.2 0.00 0.00 0.00 66 1013.1
20260503181600 69 0 0.0 2.6 0.00 0.00 0.00 68 1013.2
20260503180059 68 281 0.9 3.5 0.00 0.00 0.00 69 1013.4
20260503174555 68 0 0.0 1.7 0.00 0.00 0.00 71 1013.5
20260503173100 68 213 0.0 2.6 0.00 0.00 0.00 71 1013.6
20260503171553 66 219 0.0 1.7 0.00 0.00 0.00 71 1013.7
20260503100108 56 0 0.0 0.9 0.00 0.00 0.00 83 1014.0
20260503081557 57 0 0.0 0.0 0.00 0.00 0.00 74 1014.0
20260503071600 58 0 0.0 0.9 0.00 0.00 0.00 72 1013.9
20260503060116 61 0 0.0 0.9 0.00 0.00 0.00 66 1013.8
20260503054605 61 0 0.0 0.0 0.00 0.00 0.00 66 1013.8
20260503053055 62 0 0.0 0.9 0.00 0.00 0.00 65 1013.8
20260503051553 62 0 0.0 0.9 0.00 0.00 0.00 64 1013.8
20260503050058 63 44 0.0 1.7 0.00 0.00 0.00 64 1013.6
20260503044552 63 0 0.0 0.9 0.00 0.00 0.00 65 1013.6
20260503043055 63 0 0.0 0.0 0.00 0.00 0.00 65 1013.4
20260503041559 64 0 0.0 0.0 0.00 0.00 0.00 65 1013.2
20260503040055 65 0 0.0 0.9 0.00 0.00 0.00 61 1013.1
20260503034554 66 0 0.0 1.7 0.00 0.00 0.00 58 1012.9
20260503033105 67 284 0.0 2.6 0.00 0.00 0.00 55 1012.7
20260503031552 69 0 0.0 3.5 0.00 0.00 0.00 53 1012.5
20260503030056 70 292 0.0 2.6 0.00 0.00 0.00 51 1012.4
20260503024552 71 290 0.0 7.8 0.00 0.00 0.00 50 1012.4
20260503023107 71 0 2.6 7.0 0.00 0.00 0.00 48 1012.3
20260503021556 72 265 3.5 8.7 0.00 0.00 0.00 46 1012.1
20260503020056 72 306 1.7 10.4 0.00 0.00 0.00 47 1012.2
20260503014600 72 271 3.5 11.3 0.00 0.00 0.00 46 1012.4
20260503013053 73 298 1.7 9.6 0.00 0.00 0.00 48 1012.5
20260503011555 73 297 3.5 11.3 0.00 0.00 0.00 51 1012.6
20260503010054 73 288 1.7 8.7 0.00 0.00 0.00 55 1012.6
20260503004552 74 346 2.6 9.6 0.00 0.00 0.00 54 1012.6
20260503003053 75 321 1.7 7.8 0.00 0.00 0.00 55 1012.7
20260503001608 75 0 0.9 7.8 0.00 0.00 0.00 56 1012.7
20260503000121 75 302 1.7 7.8 0.00 0.00 0.00 56 1012.8
20260502234606 74 306 2.6 9.6 0.00 0.00 0.00 59 1013.0
20260502233053 75 292 0.9 7.0 0.00 0.00 0.00 59 1013.0
20260502231601 74 286 2.6 9.6 0.00 0.00 0.00 60 1013.3
20260502230052 74 300 1.7 7.8 0.00 0.00 0.00 62 1013.5
20260502224551 74 336 1.7 7.8 0.00 0.00 0.00 61 1013.6
20260502223055 74 37 2.6 7.0 0.00 0.00 0.00 62 1013.9
20260502221553 74 346 1.7 6.1 0.00 0.00 0.00 62 1014.0
20260502220057 73 301 2.6 7.0 0.00 0.00 0.00 62 1014.2
20260502214554 73 285 0.9 7.0 0.00 0.00 0.00 62 1014.2
20260502213109 73 331 1.7 7.0 0.00 0.00 0.00 61 1014.3